Hourly Weather Mörön

Today, 14 August, Friday

Time Temperature Precipitation Wind Pressure Humidity
00:00 +13°C° 0.4 mm 1 mps 615 mmHg 78%
01:00 +12°C° 0 mm 1 mps 615 mmHg 79%
02:00 +12°C° 0.1 mm 1 mps 615 mmHg 81%
03:00 +12°C° 0.1 mm 1 mps 614 mmHg 82%
04:00 +11°C° 0.1 mm 1 mps 614 mmHg 83%
05:00 +12°C° 0.2 mm 1 mps 615 mmHg 83%
06:00 +12°C° 0.2 mm 1 mps 615 mmHg 83%
07:00 +13°C° 0.2 mm 1 mps 615 mmHg 82%
08:00 +13°C° 0.5 mm 1 mps 615 mmHg 81%
09:00 +14°C° 0.5 mm 1 mps 616 mmHg 80%
10:00 +14°C° 0.5 mm 1 mps 616 mmHg 79%
11:00 +15°C° 0.9 mm 1 mps 616 mmHg 75%
12:00 +16°C° 0.9 mm 1 mps 616 mmHg 70%
13:00 +18°C° 0.9 mm 1 mps 616 mmHg 66%
14:00 +18°C° 0.8 mm 1 mps 616 mmHg 65%
15:00 +19°C° 0.8 mm 1 mps 616 mmHg 63%
16:00 +19°C° 0.8 mm 1 mps 616 mmHg 62%
17:00 +18°C° 0.6 mm 1 mps 616 mmHg 67%
18:00 +16°C° 0.6 mm 1 mps 616 mmHg 72%
19:00 +15°C° 0.6 mm 1 mps 616 mmHg 77%
20:00 +14°C° 0.2 mm 1 mps 615 mmHg 80%
21:00 +13°C° 0.2 mm 1 mps 615 mmHg 83%
22:00 +12°C° 0.2 mm 2 mps 615 mmHg 86%
23:00 +11°C° 0 mm 1 mps 615 mmHg 86%

Tomorrow, 15 August, Saturday

Time Temperature Precipitation Wind Pressure Humidity
00:00 +11°C° 0 mm 1 mps 615 mmHg 86%
01:00 +10°C° 0 mm 1 mps 615 mmHg 86%
02:00 +10°C° 0 mm 1 mps 615 mmHg 87%
03:00 +10°C° 0 mm 1 mps 615 mmHg 87%
04:00 +9°C° 0 mm 1 mps 615 mmHg 87%
05:00 +10°C° 0 mm 1 mps 615 mmHg 85%
06:00 +11°C° 0 mm 1 mps 616 mmHg 83%
07:00 +11°C° 0 mm 0 mps 616 mmHg 81%
08:00 +13°C° 0 mm 1 mps 616 mmHg 78%
09:00 +14°C° 0 mm 1 mps 616 mmHg 75%
10:00 +15°C° 0 mm 1 mps 617 mmHg 72%
11:00 +18°C° 0.1 mm 1 mps 617 mmHg 68%
12:00 +19°C° 0.1 mm 1 mps 617 mmHg 64%
13:00 +19°C° 0.1 mm 2 mps 617 mmHg 61%
14:00 +19°C° 0.2 mm 2 mps 617 mmHg 60%
15:00 +19°C° 0.2 mm 2 mps 616 mmHg 59%
16:00 +19°C° 0.2 mm 2 mps 616 mmHg 58%
17:00 +18°C° 0.2 mm 2 mps 616 mmHg 65%
18:00 +17°C° 0.2 mm 2 mps 616 mmHg 72%
19:00 +16°C° 0.2 mm 1 mps 615 mmHg 79%
20:00 +15°C° 0.5 mm 1 mps 615 mmHg 81%
21:00 +14°C° 0.5 mm 1 mps 615 mmHg 82%
22:00 +14°C° 0.5 mm 1 mps 615 mmHg 83%
23:00 +13°C° 0.3 mm 1 mps 615 mmHg 84%

Day after tomorrow, 16 August, Sunday

Time Temperature Precipitation Wind Pressure Humidity
00:00 +12°C° 0.3 mm 0 mps 615 mmHg 85%
01:00 +12°C° 0.3 mm 0 mps 614 mmHg 86%
02:00 +12°C° 0.5 mm 1 mps 614 mmHg 88%
03:00 +12°C° 0.5 mm 1 mps 614 mmHg 90%
04:00 +12°C° 0.5 mm 1 mps 614 mmHg 92%
05:00 +12°C° 0.3 mm 1 mps 614 mmHg 92%
06:00 +12°C° 0.3 mm 1 mps 614 mmHg 92%
07:00 +12°C° 0.3 mm 1 mps 614 mmHg 92%
08:00 +13°C° 0.9 mm 1 mps 614 mmHg 90%
09:00 +13°C° 0.9 mm 1 mps 614 mmHg 88%
10:00 +14°C° 0.9 mm 1 mps 615 mmHg 86%
11:00 +13°C° 2.5 mm 1 mps 614 mmHg 88%
12:00 +13°C° 2.5 mm 2 mps 614 mmHg 90%
13:00 +12°C° 2.5 mm 2 mps 614 mmHg 93%
14:00 +12°C° 1.2 mm 2 mps 614 mmHg 92%
15:00 +12°C° 1.2 mm 2 mps 614 mmHg 92%
16:00 +12°C° 1.2 mm 1 mps 614 mmHg 92%
17:00 +11°C° 0.7 mm 1 mps 614 mmHg 93%
18:00 +11°C° 0.7 mm 1 mps 615 mmHg 95%
19:00 +11°C° 0.7 mm 1 mps 615 mmHg 96%
20:00 +11°C° 0.3 mm 1 mps 615 mmHg 96%
21:00 +11°C° 0.3 mm 1 mps 615 mmHg 97%
22:00 +11°C° 0.3 mm 1 mps 616 mmHg 97%
23:00 +11°C° 0.2 mm 1 mps 615 mmHg 97%

17 August, Monday

Time Temperature Precipitation Wind Pressure Humidity
00:00 +10°C° 0.2 mm 1 mps 615 mmHg 97%
01:00 +10°C° 0.2 mm 1 mps 615 mmHg 97%
02:00 +10°C° 0.1 mm 1 mps 615 mmHg 97%
03:00 +10°C° 0.1 mm 1 mps 615 mmHg 97%
04:00 +10°C° 0.1 mm 1 mps 615 mmHg 97%
05:00 +10°C° 0.1 mm 1 mps 615 mmHg 96%
06:00 +10°C° 0.1 mm 1 mps 615 mmHg 95%
07:00 +11°C° 0.1 mm 1 mps 615 mmHg 95%
08:00 +12°C° 0.2 mm 1 mps 616 mmHg 88%
09:00 +12°C° 0.2 mm 1 mps 616 mmHg 82%
10:00 +13°C° 0.2 mm 1 mps 616 mmHg 76%
11:00 +14°C° 0.3 mm 1 mps 616 mmHg 72%
12:00 +15°C° 0.3 mm 1 mps 616 mmHg 69%
13:00 +16°C° 0.3 mm 1 mps 616 mmHg 65%
14:00 +16°C° 0.4 mm 1 mps 616 mmHg 65%
15:00 +16°C° 0.4 mm 1 mps 616 mmHg 64%
16:00 +18°C° 0.4 mm 1 mps 615 mmHg 64%
17:00 +16°C° 0.2 mm 1 mps 615 mmHg 69%
18:00 +15°C° 0.2 mm 1 mps 615 mmHg 75%
19:00 +14°C° 0.2 mm 1 mps 615 mmHg 80%
20:00 +13°C° 0.1 mm 1 mps 615 mmHg 82%
21:00 +12°C° 0.1 mm 1 mps 615 mmHg 85%
22:00 +11°C° 0.1 mm 1 mps 615 mmHg 87%
23:00 +11°C° 0 mm 1 mps 615 mmHg 88%

18 August, Tuesday

Time Temperature Precipitation Wind Pressure Humidity
00:00 +10°C° 0 mm 1 mps 614 mmHg 89%
01:00 +10°C° 0 mm 1 mps 614 mmHg 91%
02:00 +10°C° 0 mm 1 mps 614 mmHg 91%
03:00 +9°C° 0 mm 1 mps 614 mmHg 91%
04:00 +9°C° 0 mm 1 mps 613 mmHg 91%
05:00 +10°C° 0 mm 1 mps 614 mmHg 90%
06:00 +10°C° 0 mm 1 mps 614 mmHg 89%
07:00 +11°C° 0 mm 1 mps 614 mmHg 87%
08:00 +12°C° 0.4 mm 1 mps 614 mmHg 85%
09:00 +13°C° 0.4 mm 1 mps 614 mmHg 82%
10:00 +14°C° 0.4 mm 1 mps 614 mmHg 80%
11:00 +15°C° 0.4 mm 1 mps 614 mmHg 75%
12:00 +16°C° 0.4 mm 1 mps 614 mmHg 69%
13:00 +18°C° 0.4 mm 1 mps 614 mmHg 64%
14:00 +18°C° 1 mm 1 mps 615 mmHg 64%
15:00 +18°C° 1 mm 1 mps 615 mmHg 64%
16:00 +19°C° 1 mm 1 mps 615 mmHg 64%
17:00 +18°C° 1.1 mm 1 mps 614 mmHg 69%
18:00 +16°C° 1.1 mm 1 mps 614 mmHg 73%
19:00 +15°C° 1.1 mm 1 mps 614 mmHg 78%
20:00 +14°C° 0.1 mm 1 mps 614 mmHg 80%
21:00 +13°C° 0.1 mm 1 mps 614 mmHg 81%
22:00 +12°C° 0.1 mm 1 mps 614 mmHg 83%
23:00 +11°C° 0 mm 1 mps 614 mmHg 84%

19 August, Wednesday

Time Temperature Precipitation Wind Pressure Humidity
00:00 +11°C° 0 mm 1 mps 614 mmHg 85%
01:00 +10°C° 0 mm 1 mps 614 mmHg 86%
02:00 +10°C° 0 mm 1 mps 614 mmHg 86%
03:00 +9°C° 0 mm 1 mps 614 mmHg 87%
04:00 +9°C° 0 mm 1 mps 614 mmHg 87%
05:00 +10°C° 0 mm 1 mps 614 mmHg 85%
06:00 +11°C° 0 mm 1 mps 615 mmHg 83%
07:00 +12°C° 0 mm 1 mps 615 mmHg 81%
08:00 +13°C° 0 mm 1 mps 616 mmHg 74%
09:00 +15°C° 0 mm 1 mps 616 mmHg 68%
10:00 +16°C° 0 mm 1 mps 616 mmHg 61%
11:00 +19°C° 0 mm 1 mps 616 mmHg 56%
12:00 +19°C° 0 mm 2 mps 616 mmHg 50%
13:00 +20°C° 0 mm 2 mps 616 mmHg 45%
14:00 +20°C° 0 mm 2 mps 616 mmHg 44%
15:00 +21°C° 0 mm 2 mps 616 mmHg 43%
16:00 +21°C° 0 mm 2 mps 616 mmHg 43%
17:00 +19°C° 0 mm 2 mps 616 mmHg 49%
18:00 +19°C° 0 mm 1 mps 616 mmHg 55%
19:00 +16°C° 0 mm 1 mps 615 mmHg 61%
20:00 +16°C° 0 mm 1 mps 616 mmHg 63%
21:00 +15°C° 0 mm 2 mps 616 mmHg 64%
22:00 +14°C° 0 mm 2 mps 616 mmHg 66%
23:00 +13°C° 0 mm 2 mps 616 mmHg 68%
Show more